Weather in Krasnogvardeyets

Russia / Orenburg Oblast     52°40′47″N   52°21′40″E
temp.,
°C
wind,
m/s
gust,
m/s
humid.,
%
clouds,
%
prec.,
mm/h
press.,
hPa
HPBL,
m
28 february, sun
sun2823:000sw4898100 0.8 998336
02:000sw3599100 0.7 998230
05:00−8nw5895100 1.8 999204
08:00−11nw6109499 0.5 1000318
11:00−12nw699398 0.8 1002343
14:00−11nw6992100 0.1 1005423
17:00−11nw6991100 0.1 1007495
20:00−13wnw599498 0.1 1010353
1 march, mon
mon123:00−14nw589498 0.3 1012259
02:00−15nw479597 0.2 1014220
05:00−16nw479697 0.4 1016201
08:00−16nw479598 0.2 1017219
11:00−16nw469488 0.2 1020250
14:00−14wnw459294 0.0 1020360
17:00−14wnw579194 0.1 1022386
20:00−19wnw349773 0.0 102239
2 march, tue
tue223:00−21w229736 0.0 102220
02:00−21sw239937 0.0 102221
05:00−21ssw349745 0.0 102041
08:00−18s599784 0.0 1017198
11:00−14ssw6119492 0.0 1014331
14:00−10ssw81393100 0.3 1011466
17:00−6ssw81493100 1.0 1008747
20:00−4ssw71492100 0.5 1004704
3 march, wed
wed323:00−3ssw71393100 0.9 1002575
02:00−3ssw61195100 0.5 1000430
05:00−2w4896100 1.1 1000280
08:00−4w369598 0.1 1000208
11:00−4w469699 0.4 1001309
14:00−1wnw4695100 0.1 1002511
17:00−1nw5793100 0.3 1003576
20:00−4nw3494100 0.1 100464
4 march, thu
thu423:00−5nw489498 0.4 1006194
02:00−6wnw489692 0.1 1007234
05:00−7nw499683 0.2 1009219
08:00−10nw599588 0.1 1011247
11:00−9wnw589493 0.1 1014311
14:00−7w479293 0.0 1015405
17:00−7wsw598867 0.0 1015437
20:00−10sw512928 0.0 1014306